Winona, MN

7:19 PM CDT on May 22, 2018 (GMT -0500)
Winona Municipal-Conrad

Weather History for KONA - October, 2014

Change the Weather History Date:

Monday, October 20, 2014

  Actual Average Record
Temperature  
Mean Temperature 52 °F -  
Max Temperature 62 °F 54 °F 80 °F (2003)
Min Temperature 41 °F 37 °F 22 °F (1992)
Degree Days  
Heating Degree Days 14    
Growing Degree Days 2 (Base 50)    
Moisture  
Dew Point 42 °F    
Average Humidity 70    
Maximum Humidity 93    
Minimum Humidity 45    
Precipitation  
Precipitation 0.00 in - - ()
Sea Level Pressure  
Sea Level Pressure 29.95 in    
Wind  
Wind Speed 5 mph (NNW)    
Max Wind Speed 16 mph    
Max Gust Speed 24 mph    
Visibility 10 miles    
Events      
Averages and records for this station are not official NWS values.
T = Trace of Precipitation, MM = Missing Value Source: NWS Daily Summary

Daily Weather History Graph

Daily Weather History Graph

Search for Another Location

Airport or City:

Astronomy

Oct. 20, 2014 Rise Set
Actual Time 7:27 AM CDT 6:14 PM CDT
Civil Twilight 6:58 AM CDT 6:43 PM CDT
Nautical Twilight 6:24 AM CDT 7:17 PM CDT
Astronomical Twilight 5:51 AM CDT 7:50 PM CDT
Moon 4:09 AM CDT (10/20) 4:43 PM CDT (10/20)
Length of Visible Light 11h 45m
Length of Day
10h 46m
Waning Crescent, 10% of the Moon is Illuminated
Oct 20
Waning Crescent
Oct 23
New
Oct 30
First Quarter
Nov 6
Full
Nov 14
Last Quarter

Hourly Weather History & Observations

Time (CDT) Temp. Windchill Dew Point Humidity Pressure Visibility Wind Dir Wind Speed Gust Speed Precip Events Conditions
12:15 AM 50.0 °F - 42.8 °F 76% 29.80 in 10.0 mi NW 5.8 mph - N/A   Clear
12:35 AM 51.8 °F - 44.6 °F 76% 29.81 in 10.0 mi Calm Calm - N/A   Clear
12:55 AM 50.0 °F - 42.8 °F 76% 29.81 in 10.0 mi Calm Calm - N/A   Clear
1:15 AM 48.2 °F - 42.8 °F 82% 29.82 in 10.0 mi NNW 4.6 mph - N/A   Clear
1:35 AM 48.2 °F - 42.8 °F 82% 29.83 in 10.0 mi NNW 5.8 mph - N/A   Clear
1:55 AM 48.2 °F - 42.8 °F 82% 29.83 in 10.0 mi Calm Calm - N/A   Clear
2:15 AM 48.2 °F - 42.8 °F 82% 29.85 in 10.0 mi Calm Calm - N/A   Clear
2:35 AM 50.0 °F - 42.8 °F 76% 29.86 in 10.0 mi Calm Calm - N/A   Clear
2:55 AM 48.2 °F - 42.8 °F 82% 29.86 in 10.0 mi Calm Calm - N/A   Clear
3:15 AM 48.2 °F - 42.8 °F 82% 29.87 in 10.0 mi Calm Calm - N/A   Clear
3:35 AM 50.0 °F - 42.8 °F 76% 29.87 in 10.0 mi NW 8.1 mph - N/A   Clear
3:55 AM 50.0 °F - 42.8 °F 76% 29.88 in 10.0 mi NW 6.9 mph - N/A   Clear
4:15 AM 48.2 °F - 42.8 °F 82% 29.89 in 10.0 mi NNW 8.1 mph - N/A   Clear
4:35 AM 48.2 °F - 42.8 °F 82% 29.89 in 10.0 mi NW 4.6 mph - N/A   Clear
4:55 AM 48.2 °F - 42.8 °F 82% 29.90 in 10.0 mi NW 4.6 mph - N/A   Clear
5:15 AM 46.4 °F 43.5 °F 41.0 °F 81% 29.91 in 10.0 mi NW 5.8 mph - N/A   Clear
5:35 AM 46.4 °F 43.5 °F 42.8 °F 87% 29.91 in 10.0 mi NNW 5.8 mph - N/A   Clear
5:55 AM 44.6 °F 41.4 °F 41.0 °F 87% 29.92 in 10.0 mi NW 5.8 mph - N/A   Clear
6:15 AM 44.6 °F 42.2 °F 41.0 °F 87% 29.92 in 10.0 mi NNW 4.6 mph - N/A   Clear
6:35 AM 42.8 °F - 41.0 °F 93% 29.92 in 10.0 mi Calm Calm - N/A   Clear
6:55 AM 42.8 °F - 41.0 °F 93% 29.93 in 10.0 mi Calm Calm - N/A   Clear
7:15 AM 42.8 °F - 41.0 °F 93% 29.94 in 10.0 mi Calm Calm - N/A   Clear
7:35 AM 41.0 °F 36.4 °F 37.4 °F 87% 29.94 in 10.0 mi NW 6.9 mph - N/A   Clear
7:55 AM 42.8 °F 40.1 °F 41.0 °F 93% 29.94 in 10.0 mi NW 4.6 mph - N/A   Mostly Cloudy
8:15 AM 48.2 °F - 44.6 °F 87% 29.95 in 10.0 mi NNW 5.8 mph - N/A   Overcast
8:35 AM 46.4 °F 43.5 °F 42.8 °F 87% 29.95 in 10.0 mi NW 5.8 mph - N/A   Scattered Clouds
8:55 AM 48.2 °F - 42.8 °F 82% 29.96 in 10.0 mi WNW 4.6 mph - N/A   Clear
9:15 AM 51.8 °F - 44.6 °F 76% 29.96 in 10.0 mi NW 6.9 mph - N/A   Clear
9:33 AM 51.8 °F - 44.6 °F 76% 29.97 in 10.0 mi NNW 4.6 mph - N/A   Clear
9:55 AM 53.6 °F - 44.6 °F 72% 29.97 in 10.0 mi NW 4.6 mph - N/A   Clear
10:15 AM 53.6 °F - 44.6 °F 72% 29.97 in 10.0 mi NW 9.2 mph - N/A   Clear
10:35 AM 55.4 °F - 44.6 °F 67% 29.97 in 10.0 mi NNW 9.2 mph - N/A   Clear
10:55 AM 55.4 °F - 44.6 °F 67% 29.97 in 10.0 mi NNW 9.2 mph - N/A   Clear
11:15 AM 55.4 °F - 44.6 °F 67% 29.97 in 10.0 mi NNW 9.2 mph 16.1 mph N/A   Clear
11:35 AM 59.0 °F - 44.6 °F 59% 29.97 in 10.0 mi NNW 9.2 mph - N/A   Clear
11:55 AM 59.0 °F - 42.8 °F 55% 29.97 in 10.0 mi NNW 12.7 mph 16.1 mph N/A   Clear
12:15 PM 59.0 °F - 42.8 °F 55% 29.96 in 10.0 mi NNW 13.8 mph 18.4 mph N/A   Clear
12:35 PM 60.8 °F - 42.8 °F 52% 29.96 in 10.0 mi NW 13.8 mph 19.6 mph N/A   Clear
12:55 PM 60.8 °F - 42.8 °F 52% 29.95 in 10.0 mi NW 15.0 mph 24.2 mph N/A   Clear
1:15 PM 60.8 °F - 42.8 °F 52% 29.95 in 10.0 mi NW 12.7 mph 21.9 mph N/A   Clear
1:35 PM 60.8 °F - 42.8 °F 52% 29.94 in 10.0 mi NW 15.0 mph 20.7 mph N/A   Clear
1:55 PM 62.6 °F - 41.0 °F 45% 29.94 in 10.0 mi NW 15.0 mph 23.0 mph N/A   Clear
2:15 PM 62.6 °F - 42.8 °F 48% 29.94 in 10.0 mi NW 12.7 mph 20.7 mph N/A   Clear
2:35 PM 62.6 °F - 41.0 °F 45% 29.94 in 10.0 mi NW 16.1 mph 21.9 mph N/A   Clear
2:55 PM 62.6 °F - 41.0 °F 45% 29.94 in 10.0 mi NW 11.5 mph - N/A   Clear
3:16 PM 62.6 °F - 41.0 °F 45% 29.95 in 10.0 mi NW 15.0 mph 19.6 mph N/A   Clear
3:35 PM 62.6 °F - 41.0 °F 45% 29.95 in 10.0 mi NW 13.8 mph 19.6 mph N/A   Clear
3:55 PM 60.8 °F - 41.0 °F 48% 29.95 in 10.0 mi NW 13.8 mph - N/A   Clear
4:15 PM 60.8 °F - 41.0 °F 48% 29.96 in 10.0 mi NW 13.8 mph 20.7 mph N/A   Clear
4:35 PM 60.8 °F - 41.0 °F 48% 29.97 in 10.0 mi NW 10.4 mph 17.3 mph N/A   Clear
4:55 PM 60.8 °F - 41.0 °F 48% 29.97 in 10.0 mi NNW 10.4 mph 16.1 mph N/A   Clear
5:15 PM 60.8 °F - 41.0 °F 48% 29.98 in 10.0 mi NW 10.4 mph - N/A   Clear
5:35 PM 59.0 °F - 41.0 °F 51% 29.98 in 10.0 mi NW 6.9 mph - N/A   Clear
5:55 PM 57.2 °F - 41.0 °F 55% 29.99 in 10.0 mi NNW 4.6 mph - N/A   Clear
6:15 PM 55.4 °F - 41.0 °F 58% 29.99 in 10.0 mi North 3.5 mph - N/A   Clear
6:35 PM 55.4 °F - 41.0 °F 58% 30.00 in 10.0 mi NNE 3.5 mph - N/A   Clear
6:55 PM 55.4 °F - 42.8 °F 63% 30.01 in 10.0 mi Calm Calm - N/A   Clear
7:15 PM 53.6 °F - 41.0 °F 62% 30.02 in 10.0 mi NNE 3.5 mph - N/A   Clear
7:35 PM 53.6 °F - 41.0 °F 62% 30.03 in 10.0 mi ENE 3.5 mph - N/A   Clear
7:55 PM 53.6 °F - 41.0 °F 62% 30.04 in 10.0 mi NE 4.6 mph - N/A   Clear
8:14 PM 53.6 °F - 41.0 °F 62% 30.04 in 10.0 mi Calm Calm - N/A   Clear
8:35 PM 51.8 °F - 41.0 °F 67% 30.05 in 10.0 mi Calm Calm - N/A   Clear
8:55 PM 50.0 °F - 37.4 °F 62% 30.05 in 10.0 mi Calm Calm - N/A   Clear
9:15 PM 50.0 °F - 39.2 °F 66% 30.05 in 10.0 mi Calm Calm - N/A   Clear
9:35 PM 48.2 °F - 41.0 °F 76% 30.06 in 10.0 mi Calm Calm - N/A   Clear
9:55 PM 46.4 °F - 41.0 °F 81% 30.06 in 10.0 mi Calm Calm - N/A   Clear
10:15 PM 46.4 °F - 42.8 °F 87% 30.07 in 10.0 mi Calm Calm - N/A   Clear
10:24 PM 46.4 °F 45.2 °F 42.8 °F 87% 30.07 in 10.0 mi NW 3.5 mph - N/A   Clear
10:55 PM 44.6 °F - 41.0 °F 87% 30.07 in 10.0 mi Calm Calm - N/A   Clear
11:20 PM 42.8 °F - 41.0 °F 93% 30.07 in 10.0 mi Calm Calm - N/A   Clear
11:40 PM 42.8 °F 41.1 °F 39.2 °F 87% 30.07 in 10.0 mi NW 3.5 mph - N/A   Clear
11:55 PM 42.8 °F - 39.2 °F 87% 30.07 in 10.0 mi Calm Calm - N/A   Clear